Wind_Speed
52 59 66 71 75 81 77 64 62 59 55 57 60 61 66 65 60 41 25 23 23 20 20 20 22 27 38 58 66 66 66 65 60 54 51 49 47 43 45 49 50 50 49 47 47 48 46
54 58 64 70 75 82 79 65 62 58 54 58 61 65 70 69 56 31 22 18 16 16 16 16 14 15 21 25 45 60 65 63 61 56 49 49 46 42 44 47 52 46 52 51 50 47 47
54 58 63 68 76 82 77 66 62 55 54 57 61 65 68 64 51 30 19 17 16 17 14 13 11 8 12 19 31 44 63 63 60 58 50 51 47 45 42 44 51 51 52 57 47 49 48
52 57 61 67 75 81 74 64 61 53 52 55 58 60 60 60 59 35 21 18 13 4 0 6 6 7 9 15 25 27 43 58 61 58 52 46 47 47 43 40 45 53 51 54 50 46 46
53 55 61 67 75 81 73 63 63 52 51 52 52 53 61 62 60 50 26 17 9 4 4 5 8 4 8 8 21 29 38 50 60 60 55 45 45 47 43 39 41 49 51 51 48 47 42
50 54 60 67 74 80 76 62 61 53 50 49 52 47 55 54 56 58 50 27 11 5 5 4 7 7 7 10 17 29 39 47 55 56 52 47 43 48 46 40 35 37 40 46 46 45 41
48 54 58 65 72 79 77 64 61 52 49 48 49 46 42 44 50 51 54 55 30 9 5 2 1 4 8 15 20 31 40 52 46 50 48 44 44 43 38 36 33 30 36 43 43 45 48
47 53 58 63 70 74 78 64 59 52 46 46 45 44 41 38 40 45 48 46 42 37 12 3 5 4 9 14 24 37 44 56 56 52 43 48 36 35 39 37 34 33 33 40 44 47 45
47 52 57 62 68 73 76 66 57 55 43 44 41 43 39 35 36 32 41 39 37 40 30 27 12 4 9 19 32 38 44 58 53 38 51 44 36 36 37 37 32 30 26 33 40 46 46
45 50 55 60 67 72 73 73 53 56 45 41 37 38 37 34 31 27 32 42 41 34 40 39 31 16 30 54 43 36 38 51 52 42 33 43 39 33 37 34 28 27 29 35 43 43 44
44 49 53 58 66 71 73 73 65 53 51 35 36 32 33 32 19 22 25 33 39 34 40 39 35 39 32 30 32 20 30 33 42 46 41 37 37 31 30 29 27 28 32 35 38 43 45
45 48 52 55 64 68 72 73 66 52 51 36 33 30 30 26 15 14 21 31 30 31 33 26 15 21 33 29 26 29 20 30 34 44 45 39 34 36 28 31 31 28 31 33 36 44 46
43 48 51 52 59 66 70 71 67 54 50 43 28 28 25 25 18 10 15 24 25 26 32 27 29 28 21 23 23 25 22 28 36 40 37 32 37 37 33 35 28 34 24 32 36 43 43
40 46 47 49 54 61 67 70 68 58 52 44 29 25 22 21 16 14 10 20 21 22 24 24 24 27 19 18 15 17 18 25 26 29 29 30 33 35 29 27 30 32 25 20 32 38 39
39 44 44 46 51 58 65 70 71 65 57 42 35 22 22 15 13 10 11 12 18 22 16 13 23 23 27 21 11 16 16 15 19 20 21 24 24 25 26 28 31 27 22 21 24 31 36
40 42 43 45 47 54 61 66 69 70 59 43 36 21 20 16 9 5 6 7 13 16 16 8 7 15 17 21 14 11 11 14 16 18 15 20 24 26 28 26 26 29 22 21 26 29 33
43 41 42 43 44 53 58 64 68 69 62 42 37 25 17 16 5 4 5 4 2 8 10 13 10 10 13 12 15 12 10 14 17 17 18 15 19 27 30 31 22 28 23 22 22 25 27
41 37 40 40 44 49 55 61 66 68 62 40 35 29 18 16 10 3 5 10 7 3 3 3 5 6 6 8 7 9 9 10 14 16 14 12 11 18 30 30 25 22 23 21 21 21 23
38 37 37 39 41 46 53 58 64 68 61 41 34 29 19 14 13 8 7 7 14 11 5 3 1 1 3 4 4 5 4 7 12 14 15 15 14 13 18 28 32 29 27 24 21 16 21
37 37 37 38 40 45 49 53 60 67 65 46 37 28 22 16 15 11 11 8 9 14 13 8 7 5 3 3 3 2 5 6 9 12 13 13 15 18 18 17 20 20 23 26 23 23 23
37 38 37 38 41 43 45 50 61 65 64 54 37 29 22 18 16 15 10 16 13 11 12 12 13 11 8 5 3 6 7 8 9 11 17 17 15 14 16 20 21 22 20 23 25 19 20
37 39 37 36 37 41 43 48 56 63 67 57 41 32 22 20 19 19 16 13 19 18 17 15 14 13 11 10 9 9 8 9 9 12 14 18 23 22 20 18 17 18 20 19 19 23 21
38 39 37 36 35 41 45 50 52 59 65 57 37 31 23 19 17 20 19 15 16 20 20 20 18 16 14 12 10 9 8 8 10 11 13 15 19 22 24 23 22 20 19 19 21 22 22
41 38 37 37 35 41 48 50 52 57 64 52 35 31 24 19 17 19 22 21 16 17 20 19 19 18 16 15 11 10 9 9 9 9 11 12 14 19 21 24 24 21 22 21 21 23 22
42 38 38 39 39 40 49 49 51 57 60 49 34 32 22 21 19 18 23 23 21 19 16 21 20 20 18 16 15 14 12 11 11 10 12 13 13 14 16 18 18 17 19 20 19 22 21
43 40 43 42 43 44 48 51 50 55 54 46 36 32 22 22 20 19 25 27 25 22 20 17 18 19 20 19 17 15 14 14 13 13 13 14 16 18 15 16 17 15 17 18 18 16 16
44 44 41 44 46 45 43 52 51 51 51 44 34 31 26 23 21 19 22 28 28 25 23 24 24 21 21 20 18 16 15 14 15 15 14 15 15 18 17 15 15 15 17 17 15 14 15
43 47 47 50 46 45 48 51 50 52 51 40 32 27 23 23 19 17 19 24 26 28 26 27 27 27 26 24 23 21 19 18 16 15 16 16 16 17 16 14 15 16 14 16 16 17 17
42 47 47 47 45 49 52 47 51 52 46 37 30 26 22 19 20 16 15 23 26 26 29 32 32 32 31 28 26 24 20 20 18 15 16 17 16 16 16 16 16 16 16 17 18 17 16
Wind_Direction
350 354 352 346 343 341 348 350 347 347 346 342 342 344 344 347 335 331 310 290 287 282 276 276 262 249 241 240 233 231 221 217 214 214 217 217 216 214 220 218 223 214 217 218 218 215 215
354 353 348 346 342 342 349 351 348 349 346 344 346 350 352 352 342 340 328 312 296 292 291 269 245 239 236 234 219 225 218 214 214 209 211 215 214 213 214 216 217 217 217 217 222 218 216
353 349 345 345 341 344 350 351 349 350 346 345 353 355 357 358 355 347 332 323 311 293 271 235 230 228 224 208 196 211 221 211 208 205 206 212 211 212 212 212 214 219 223 223 214 220 222
349 346 345 343 342 344 353 353 350 350 348 349 358 2 6 9 8 359 346 332 325 314 265 209 208 213 214 205 183 187 209 205 203 202 201 205 207 209 210 211 215 215 220 226 213 218 225
350 347 346 343 342 344 353 353 351 352 349 350 2 12 17 18 26 21 1 354 355 331 261 257 237 218 215 197 191 191 180 187 194 200 198 206 207 209 209 208 212 219 217 229 220 217 220
346 347 346 342 342 345 354 355 353 352 350 350 3 6 24 28 30 29 20 4 354 359 302 263 217 225 212 199 190 190 171 170 185 191 191 202 207 208 207 209 215 225 226 227 232 224 220
342 342 345 343 343 346 353 357 356 352 349 350 2 7 20 18 17 10 17 23 23 344 314 347 226 200 233 196 180 180 168 164 168 185 190 199 207 210 213 213 215 216 224 227 227 229 222
342 342 344 343 343 345 353 357 355 354 347 349 360 9 13 20 14 14 15 19 39 41 39 13 248 221 200 172 166 166 162 159 162 168 182 195 195 202 206 211 215 217 224 225 224 226 228
342 343 344 342 342 344 349 357 354 355 348 350 360 8 12 20 23 18 11 23 21 41 53 38 61 128 152 151 147 147 158 158 159 170 192 196 196 200 202 210 215 220 233 231 230 227 226
341 342 343 340 341 342 347 353 357 353 353 349 355 7 12 24 28 27 25 29 24 33 41 61 59 105 138 127 117 122 142 157 170 178 176 192 200 197 200 206 216 220 228 229 227 228 230
341 343 344 340 339 342 345 352 358 355 353 345 350 7 11 21 51 42 18 12 21 41 44 66 99 97 91 84 89 105 149 162 185 184 185 170 180 194 199 206 221 223 230 232 229 228 228
339 341 345 342 338 341 343 349 355 359 352 350 348 357 10 17 34 20 18 17 18 35 67 62 95 78 90 83 96 125 119 143 178 183 191 203 206 195 203 212 219 226 231 235 228 229 231
335 339 345 341 339 340 341 345 353 358 353 350 345 348 4 15 19 20 17 26 40 45 88 95 88 94 102 99 89 93 111 128 147 175 185 189 193 194 205 218 221 229 231 228 230 227 228
329 336 340 347 341 339 339 342 346 354 359 350 345 342 357 11 13 22 34 34 33 59 99 82 81 78 81 93 96 107 115 142 153 160 164 173 184 188 199 214 223 218 225 237 235 232 227
327 329 335 341 344 339 338 341 344 351 358 349 346 338 348 4 14 14 6 48 42 77 103 88 103 78 54 88 111 118 124 170 160 161 173 182 191 200 203 218 204 209 228 242 239 239 233
325 323 331 333 341 342 339 339 341 347 355 352 347 335 334 8 13 353 340 23 75 65 77 76 118 45 63 63 118 112 132 147 171 197 194 218 206 203 204 199 208 219 235 241 238 239 234
326 320 328 333 338 344 339 337 340 342 351 351 345 337 329 334 1 356 262 316 75 70 47 99 102 83 72 65 88 122 127 164 185 199 203 189 202 208 204 201 218 215 240 246 238 237 238
321 316 323 333 338 338 339 339 337 340 346 351 342 343 325 314 338 286 238 251 255 240 351 111 66 70 74 69 98 118 130 152 173 195 201 194 190 197 205 210 212 232 234 226 238 238 238
314 309 318 335 336 334 338 336 335 335 344 349 338 342 325 300 299 298 246 237 235 248 267 218 250 8 60 84 98 123 128 155 176 187 182 186 202 206 206 220 222 224 233 237 236 227 230
306 306 315 330 331 332 336 337 333 332 340 347 338 336 331 299 282 283 234 220 228 235 247 250 240 265 260 181 177 182 192 185 196 193 203 193 201 201 202 206 213 232 239 212 221 243 244
298 305 311 322 328 327 333 334 328 329 335 343 339 330 328 306 271 268 257 227 221 220 232 240 251 268 277 279 218 223 216 217 219 213 205 205 208 215 217 221 225 231 221 220 228 231 240
298 303 306 319 328 332 331 328 327 327 328 336 339 328 323 316 275 259 259 243 231 231 229 233 239 245 249 251 251 235 233 239 228 224 226 224 222 224 232 231 232 230 231 232 232 238 243
299 300 301 313 324 334 326 325 325 324 325 332 337 326 322 317 288 257 254 252 239 232 233 236 236 240 242 243 236 231 232 232 238 234 218 224 228 226 222 227 230 229 227 224 221 229 233
298 296 300 310 317 332 331 322 322 322 324 330 333 326 319 313 298 260 244 249 241 239 236 233 236 238 241 248 245 245 246 245 245 240 236 230 218 225 226 229 231 230 233 232 228 232 239
294 298 299 310 315 319 333 323 317 317 322 330 330 324 313 308 294 269 240 241 242 243 239 238 241 241 241 241 247 255 254 245 246 251 249 245 241 231 229 235 235 236 234 236 238 238 237
295 301 303 305 311 321 326 319 313 315 317 326 324 321 321 309 288 278 244 239 241 245 246 244 241 243 245 246 251 257 253 255 255 259 260 241 239 232 240 245 236 230 232 229 232 237 234
297 302 302 309 315 325 322 316 313 312 320 322 320 324 320 308 296 273 254 240 242 242 243 247 250 252 255 252 249 254 258 260 262 261 260 253 240 233 247 246 239 232 233 229 233 231 236
298 299 300 301 314 326 327 314 316 316 316 322 315 320 322 308 299 285 257 247 246 246 246 247 246 249 253 254 256 254 258 265 262 258 257 256 247 242 246 241 238 236 231 227 226 228 232
300 301 305 303 309 321 329 319 315 313 319 322 317 324 323 302 295 286 266 247 248 245 244 247 251 246 246 252 254 256 255 258 261 251 254 252 250 248 243 238 235 232 234 231 231 234 234
Height
5789 5779 5766 5753 5739 5723 5710 5697 5684 5672 5662 5653 5641 5628 5612 5593 5573 5558 5552 5549 5548 5548 5549 5550 5551 5552 5554 5561 5584 5591 5611 5626 5635 5651 5662 5675 5684 5692 5701 5710 5715 5726 5735 5739 5742 5751 5763
5786 5775 5763 5749 5734 5720 5707 5692 5680 5667 5657 5646 5634 5620 5602 5583 5563 5551 5547 5545 5544 5543 5544 5543 5544 5546 5549 5553 5556 5572 5595 5614 5628 5643 5654 5666 5679 5687 5693 5700 5709 5723 5726 5728 5731 5745 5754
5783 5772 5760 5747 5731 5716 5702 5689 5676 5664 5654 5642 5629 5614 5597 5578 5560 5549 5546 5543 5541 5539 5538 5539 5541 5543 5544 5545 5553 5564 5579 5602 5619 5633 5647 5659 5669 5679 5687 5694 5703 5711 5713 5718 5734 5742 5747
5780 5768 5757 5744 5729 5714 5700 5688 5673 5662 5652 5639 5626 5612 5597 5579 5561 5549 5544 5540 5537 5535 5535 5537 5539 5541 5542 5547 5552 5559 5569 5590 5611 5625 5642 5651 5661 5672 5680 5690 5698 5703 5710 5712 5731 5736 5747
5777 5766 5754 5741 5726 5711 5699 5686 5674 5661 5651 5639 5628 5615 5600 5584 5566 5552 5543 5539 5535 5535 5535 5536 5538 5540 5542 5546 5550 5553 5563 5583 5604 5621 5637 5646 5656 5668 5675 5685 5692 5695 5705 5713 5725 5734 5741
5775 5764 5752 5739 5725 5711 5699 5686 5672 5662 5651 5640 5632 5619 5607 5593 5579 5564 5551 5541 5537 5535 5535 5534 5536 5539 5542 5545 5548 5554 5563 5580 5598 5615 5629 5641 5651 5661 5670 5681 5692 5700 5708 5715 5722 5731 5738
5772 5761 5752 5738 5724 5711 5698 5686 5673 5661 5650 5642 5633 5623 5612 5601 5589 5576 5565 5553 5543 5537 5535 5536 5537 5538 5539 5541 5546 5554 5566 5579 5599 5614 5627 5637 5647 5662 5680 5685 5688 5695 5701 5707 5715 5721 5727
5770 5759 5749 5736 5724 5711 5697 5684 5672 5661 5651 5642 5635 5625 5615 5606 5597 5585 5576 5569 5553 5542 5536 5535 5536 5537 5538 5541 5546 5555 5568 5583 5599 5617 5623 5636 5652 5663 5671 5679 5685 5691 5695 5703 5708 5713 5718
5768 5758 5748 5735 5722 5710 5696 5685 5674 5663 5652 5644 5638 5629 5619 5610 5602 5594 5585 5576 5566 5554 5546 5543 5539 5538 5541 5544 5550 5563 5575 5587 5601 5614 5625 5641 5650 5657 5668 5676 5683 5690 5696 5699 5703 5708 5713
5766 5756 5746 5733 5720 5709 5698 5685 5675 5664 5654 5645 5638 5633 5624 5615 5608 5601 5593 5586 5578 5567 5558 5553 5549 5548 5547 5553 5563 5574 5586 5598 5607 5617 5624 5636 5648 5657 5665 5675 5681 5687 5692 5692 5695 5705 5710
5763 5754 5744 5731 5720 5709 5698 5687 5675 5664 5655 5645 5640 5635 5628 5620 5614 5607 5602 5594 5588 5581 5573 5574 5570 5566 5565 5568 5578 5585 5596 5604 5611 5619 5626 5638 5648 5659 5666 5672 5678 5684 5684 5687 5694 5699 5704
5761 5752 5742 5731 5720 5709 5697 5687 5674 5665 5655 5647 5641 5637 5631 5625 5619 5614 5608 5603 5599 5593 5584 5586 5583 5582 5583 5582 5587 5594 5598 5603 5607 5620 5632 5641 5648 5656 5663 5669 5674 5678 5680 5685 5690 5692 5696
5759 5750 5740 5730 5719 5708 5696 5684 5674 5664 5657 5647 5641 5637 5634 5628 5625 5619 5615 5611 5610 5601 5595 5595 5592 5592 5594 5597 5600 5600 5606 5612 5618 5626 5633 5639 5647 5655 5660 5667 5671 5675 5678 5681 5685 5685 5692
5755 5747 5738 5728 5717 5706 5695 5683 5673 5665 5657 5648 5641 5636 5635 5631 5627 5623 5620 5618 5616 5611 5607 5604 5601 5602 5605 5605 5608 5611 5616 5622 5626 5632 5638 5642 5649 5654 5660 5666 5668 5670 5676 5679 5680 5683 5691
5752 5744 5736 5726 5716 5705 5695 5684 5673 5665 5657 5649 5641 5637 5635 5632 5630 5627 5625 5624 5621 5619 5617 5616 5614 5613 5613 5613 5614 5618 5623 5625 5629 5635 5640 5644 5649 5653 5657 5661 5665 5667 5672 5677 5678 5680 5685
5748 5740 5734 5725 5715 5705 5695 5682 5672 5664 5657 5649 5642 5637 5635 5633 5631 5629 5628 5626 5625 5624 5623 5622 5621 5619 5621 5622 5621 5622 5624 5628 5632 5636 5640 5643 5647 5651 5655 5659 5663 5667 5671 5673 5674 5675 5678
5744 5738 5731 5723 5713 5704 5693 5681 5671 5661 5654 5646 5640 5635 5634 5632 5631 5630 5628 5627 5627 5625 5626 5626 5625 5624 5624 5624 5625 5628 5630 5633 5635 5637 5641 5642 5645 5649 5653 5656 5660 5665 5667 5670 5671 5672 5674
5739 5733 5728 5720 5712 5701 5692 5681 5670 5658 5649 5645 5639 5634 5632 5631 5631 5629 5628 5627 5627 5626 5627 5627 5627 5626 5627 5627 5628 5629 5631 5633 5636 5639 5640 5640 5642 5646 5651 5654 5657 5660 5663 5665 5667 5670 5672
5733 5729 5724 5717 5708 5698 5690 5679 5667 5656 5649 5641 5636 5633 5629 5629 5628 5627 5627 5625 5625 5626 5626 5627 5627 5628 5628 5629 5630 5631 5632 5633 5635 5637 5639 5641 5642 5644 5647 5651 5652 5656 5659 5662 5664 5666 5668
5727 5724 5720 5713 5705 5696 5687 5675 5663 5654 5646 5641 5633 5628 5626 5625 5626 5625 5625 5625 5624 5623 5625 5625 5627 5628 5629 5629 5630 5631 5632 5633 5634 5636 5638 5640 5642 5645 5648 5649 5651 5653 5653 5657 5660 5662 5667
5721 5720 5715 5708 5701 5692 5683 5672 5661 5651 5642 5637 5631 5625 5621 5620 5619 5621 5621 5622 5622 5623 5623 5624 5625 5626 5626 5628 5628 5629 5631 5632 5633 5635 5637 5639 5641 5643 5645 5647 5649 5651 5652 5655 5658 5659 5661
5716 5713 5708 5703 5696 5687 5678 5667 5659 5649 5638 5633 5627 5621 5616 5613 5614 5615 5616 5618 5619 5620 5621 5623 5624 5625 5627 5627 5628 5629 5629 5630 5631 5632 5634 5636 5639 5641 5643 5644 5646 5647 5650 5653 5654 5655 5657
5709 5707 5701 5696 5691 5682 5673 5663 5655 5643 5633 5625 5620 5616 5611 5608 5608 5608 5611 5613 5614 5615 5617 5619 5621 5622 5624 5626 5626 5626 5627 5628 5629 5630 5631 5632 5634 5636 5639 5641 5643 5646 5647 5649 5651 5651 5653
5701 5698 5694 5690 5685 5678 5668 5657 5648 5639 5630 5620 5616 5610 5608 5605 5603 5602 5604 5606 5609 5611 5613 5614 5616 5618 5620 5621 5623 5624 5625 5625 5626 5627 5628 5630 5630 5632 5634 5636 5638 5641 5642 5644 5645 5646 5649
5693 5690 5686 5683 5678 5672 5661 5651 5641 5632 5623 5616 5611 5607 5600 5599 5598 5598 5597 5600 5603 5605 5608 5610 5612 5614 5615 5617 5619 5621 5622 5623 5623 5624 5625 5626 5627 5629 5631 5632 5635 5636 5637 5639 5640 5642 5644
5684 5682 5679 5675 5672 5666 5656 5645 5636 5628 5617 5610 5606 5601 5597 5593 5592 5592 5592 5594 5596 5599 5603 5605 5607 5609 5611 5613 5615 5616 5618 5620 5621 5621 5621 5623 5624 5626 5627 5628 5630 5632 5633 5635 5637 5638 5640
5677 5674 5672 5669 5666 5660 5649 5638 5630 5623 5613 5604 5599 5595 5593 5586 5587 5586 5587 5588 5591 5594 5597 5599 5601 5603 5606 5608 5610 5613 5614 5616 5616 5617 5618 5618 5619 5621 5622 5624 5627 5628 5629 5631 5634 5639 5637
5667 5665 5664 5661 5659 5652 5644 5632 5624 5617 5605 5599 5593 5587 5585 5583 5581 5579 5581 5583 5585 5588 5591 5592 5596 5597 5600 5602 5604 5607 5609 5610 5612 5613 5613 5614 5616 5617 5618 5620 5623 5624 5626 5629 5630 5631 5633
5657 5655 5654 5651 5649 5645 5637 5626 5616 5608 5598 5592 5588 5584 5579 5579 5578 5575 5575 5578 5579 5581 5584 5585 5587 5589 5592 5596 5599 5600 5603 5605 5606 5608 5609 5610 5612 5613 5616 5617 5618 5619 5622 5623 5625 5627 5629